Weather History for Marshfield, WI

Change the Weather History Date:

Wednesday, July 3, 2013

  Actual Average Record
Temperature  
Mean Temperature 62 °F -  
Max Temperature 75 °F 80 °F 93 °F (1966)
Min Temperature 50 °F 56 °F 40 °F (1915)
Degree Days  
Heating Degree Days 4    
Growing Degree Days 12 (Base 50)    
Moisture  
Dew Point 51 °F    
Average Humidity 69    
Maximum Humidity 93    
Minimum Humidity 34    
Precipitation  
Precipitation 0.00 in - - ()
Sea Level Pressure  
Sea Level Pressure 30.08 in    
Wind  
Wind Speed 2 mph (SSE)    
Max Wind Speed 12 mph    
Max Gust Speed -    
Visibility 10 miles    
Events Rain    
Averages and records for this station are not official NWS values.
T = Trace of Precipitation, MM = Missing Value Source: NWS Daily Summary

Daily Weather History Graph

Daily Weather History Graph

Search for Another Location

Airport:

Trip Planner

Search our weather history database for the weather conditions in past years. The results will help you decide how hot, cold, wet, or windy it might be!

Date:

Astronomy

Jul. 03, 2013 Rise Set
Actual Time 5:20 AM CDT 8:49 PM CDT
Civil Twilight 4:44 AM CDT 9:25 PM CDT
Nautical Twilight 3:55 AM CDT 10:13 PM CDT
Astronomical Twilight 2:53 AM CDT 11:15 PM CDT
Moon 2:03 AM CDT (7/3) 4:55 PM CDT (7/3)
Length of Visible Light 16h 41m
Length of Day
15h 28m
Waning Crescent, 18% of the Moon is Illuminated
Jul 3
Waning Crescent
Jul 8
New
Jul 15
First Quarter
Jul 22
Full
Jul 29
Last Quarter

Hourly Weather History & Observations

Time (CDT) Temp. Dew Point Humidity Pressure Visibility Wind Dir Wind Speed Gust Speed Precip Events Conditions
12:54 AM 57.9 °F 46.9 °F 67% 30.10 in 10.0 mi Calm Calm - N/A   Clear
1:54 AM 55.9 °F 46.9 °F 72% 30.09 in 10.0 mi SE 3.5 mph - N/A   Clear
2:54 AM 52.0 °F 46.9 °F 83% 30.09 in 10.0 mi Calm Calm - N/A   Clear
3:54 AM 51.1 °F 48.0 °F 89% 30.09 in 10.0 mi Calm Calm - N/A   Clear
4:54 AM 51.1 °F 48.0 °F 89% 30.09 in 10.0 mi Calm Calm - N/A   Clear
5:54 AM 50.0 °F 46.9 °F 89% 30.10 in 10.0 mi Calm Calm - N/A   Clear
6:54 AM 55.0 °F 52.0 °F 89% 30.10 in 10.0 mi Calm Calm - N/A   Overcast
7:54 AM 59.0 °F 51.1 °F 75% 30.12 in 10.0 mi Calm Calm - N/A   Overcast
8:54 AM 63.0 °F 46.9 °F 56% 30.12 in 10.0 mi Calm Calm - N/A   Overcast
9:54 AM 66.0 °F 48.0 °F 52% 30.12 in 10.0 mi SE 3.5 mph - N/A   Overcast
10:54 AM 71.1 °F 44.1 °F 38% 30.10 in 10.0 mi Variable 4.6 mph - N/A   Overcast
11:54 AM 72.0 °F 44.1 °F 37% 30.10 in 10.0 mi Variable 4.6 mph - N/A   Clear
12:54 PM 73.0 °F 43.0 °F 34% 30.08 in 10.0 mi Variable 3.5 mph - N/A   Partly Cloudy
1:54 PM 73.9 °F 46.0 °F 37% 30.07 in 10.0 mi East 6.9 mph - N/A   Mostly Cloudy
2:54 PM 70.0 °F 52.0 °F 53% 30.08 in 10.0 mi SSE 11.5 mph - N/A   Overcast
3:54 PM 68.0 °F 54.0 °F 61% 30.07 in 10.0 mi SSE 6.9 mph - 0.00 in Rain Light Rain
4:54 PM 66.9 °F 57.9 °F 73% 30.07 in 10.0 mi SE 9.2 mph - 0.00 in   Overcast
5:54 PM 68.0 °F 57.9 °F 70% 30.05 in 10.0 mi SSE 6.9 mph - 0.00 in   Overcast
6:54 PM 69.1 °F 57.9 °F 68% 30.04 in 10.0 mi SSE 3.5 mph - N/A   Clear
7:54 PM 66.9 °F 57.9 °F 73% 30.03 in 10.0 mi Calm Calm - N/A   Clear
8:54 PM 63.0 °F 59.0 °F 87% 30.03 in 10.0 mi South 5.8 mph - N/A   Clear
9:54 PM 61.0 °F 57.9 °F 90% 30.04 in 10.0 mi South 3.5 mph - N/A   Partly Cloudy
10:54 PM 61.0 °F 57.9 °F 90% 30.04 in 10.0 mi SSE 3.5 mph - N/A   Clear
11:54 PM 59.0 °F 57.0 °F 93% 30.04 in 9.0 mi South 3.5 mph - N/A   Clear